FENGYUN 1C DEB, 36163

Orbit data source: Space-Track

FENGYUN 1C DEB, 36163 is space debris in SSO originally from a launch on Mon, 10 May 1999 UTC launched from the Taiyaun Space Center, China (TSC). Fengyun 1C debris stems from the Chinese weather satellite Fengyun-1C, which was intentionally destroyed by a Chinese anti-satellite missile in 2007. This event dramatically increased the amount of space debris, with thousands of trackable fragments posing hazards to satellites and human spaceflight. The Fengyun 1C debris cloud has become a focal point in discussions about space sustainability and the need for international regulations to prevent the creation of new debris.

Loading next visibility...
Identifier
36163, 1999-025DSL
Orbit
SSO
Country
Flag of CNCN / PRC
Related business
Manufacturer
Unknown
Mission
Spacecraft
Bus & Motor
Unknown
Mass
Unknown
Launch date (UTC)
1999-05-10 (27 years ago)
Launch vehicle
Unknown
Launch site
Taiyaun Space Center, China (TSC)
Object type
Payload
Rocket body
Debris
Shape & HBR
Unknown shape, 0.1 m
Radar Cross Section
Small (<0.1 m²)

Expand to show TLE details & history
Last TLE update: 2 days ago

TLE from 2 days ago
0 FENGYUN 1C DEB
1 36163U 99025DSL 26165.35956719  .00012905  00000-0  23768-2 0  9994
2 36163  99.0788  32.5968 0031682 235.7303 124.0897 14.65388615918712
Epoch: 2026-06-14T08:37Z
TLE epoch observation values (Epoch: 2026-06-14T08:37:46.605Z)
Latitude
0.00009°
Longitude
0.49116°
Altitude
691.369 km
Speed
7.504 km/s
True Right ascension
02h 10m 23s
True Declination
0° 00' 00"
Sunlit
Object was in daylight at epoch
Visualization orbit readout
Latitude
Unknown
Longitude
Unknown
Altitude
Unknown
Speed
Unknown
Apparent Right ascension
Unknown
Apparent Declination
Unknown
Sunlit
N/A
Visualization observer readout
Local Sidereal Time
02:50:03
Azimuth
Unknown
Elevation
Unknown
Doppler factor
Unknown
Orbital elements
Apogee altitude
695.284 km
Perigee altitude
650.605 km
Semi-major axis
7,051.082 km
Eccentricity
0.00317
Inclination
99.0788°
RAAN
32.5968°
Arg. of periapsis
235.7303°
True anomaly
124.3897°
Mean anomaly
124.0897°
Eccentric anomaly
124.23976°
Mean motion
3.66572 °/min
Orbital period
98.21 mins
BSTAR
0.0023768
Loading maneuver chart data...
Computing Atmospheric mass density...

Documentation

Showing up to 5 results
|